Regional Weather Roundup
Issued by NWS

Home | Current Version | Previous Version | Graphics & Text | Print | Product List | Glossary On
Versions: 1 2 3 4 5 6 7 8 9 10 11 12 13 14 15 16 17 18 19 20 21 22 23 24 25 26 27 28 29 30 31 32 33 34 35 36 37 38 39 40 41 42 43 44 45 46 47 48 49 50
000
ASUS43 KMPX 221301
RWRMN
WEATHER ROUNDUP FOR MINNESOTA
NATIONAL WEATHER SERVICE TWIN CITIES/CHANHASSEN MN
800 AM CDT WED OCT 22 2014


NOTE: "FAIR" INDICATES FEW OR NO CLOUDS BELOW 12,000 FEET WITH NO
SIGNIFICANT WEATHER AND/OR OBSTRUCTIONS TO VISIBILITY. N/A MEANS
CURRENT SKY AND/OR WEATHER CONDITIONS ARE NOT AVAILABLE.

MNZ060>063-068>070-221400-
   Twin Cities Metro

CITY           SKY/WX    TMP DP  RH WIND       PRES   REMARKS
TWIN CITIES    FAIR      40  36  86 SE13      30.20F
ST PAUL        CLEAR     41  37  86 SE10      30.22F
CRYSTAL        CLEAR     42  36  79 SE13G21   30.17F
LAKEVILLE      FAIR      37  36  93 SE7       30.20F
EDEN PRAIRIE   CLEAR     41  37  86 SE12      30.17F
SOUTH ST PAUL  CLEAR     40  36  84 SE8       30.22S
LAKE ELMO      FAIR      41  36  81 S10       30.22F
$$
MNZ001>005-007-008-013>017-022>024-027-028-221400-
   Northwest Minnesota

CITY           SKY/WX    TMP DP  RH WIND       PRES   REMARKS
BEMIDJI        CLEAR     45  38  78 SE17      29.99R
HALLOCK        MOCLDY    55  41  58 S20G26    29.78F
ROSEAU         CLOUDY    52  43  71 SE16      29.88F
WARROAD        CLOUDY    48  43  81 SE13      29.91S
THIEF RVR FALL PTCLDY    54  39  58 SE17G25   29.86F
CROOKSTON      MOCLDY    54  43  66 S24G31    29.84F
FOSSTON        PTCLDY    50  37  62 SE17      29.91R
DETROIT LAKES  PTCLDY    48  41  76 SE15G22   29.95S
MOORHEAD       PTCLDY    54  45  71 SE24G30   29.88F
PARK RAPIDS    MOCLDY    45  38  76 SE21      30.01F
MAHNOMEN       FAIR      50  40  67 S16G23    29.91R
$$
MNZ006-009>011-018-025>026-221400-
   North Central Minnesota

CITY           SKY/WX    TMP DP  RH WIND       PRES   REMARKS
BAUDETTE       CLEAR     44  38  79 SE10      29.96S
FLAG ISLAND    PTCLDY    46  41  81 S25       29.92R
INTL FALLS     CLEAR     43  36  76 S9G21     30.04F
WASKISH        CLEAR     45  39  81 SE15G24   29.97S
BIG FORK       CLEAR     43  36  75 SE10G17   30.08S
LONGVILLE      CLEAR     43  37  81 SE12      30.07S
GRAND RAPIDS   CLEAR     39  34  81 SE13      30.11R
CRANE LAKE     CLEAR     41  36  81 S8        30.13S
ORR            CLEAR     39  34  81 SE9       30.09S
COOK           CLEAR     41  36  81 SE10G18   30.13F
WALKER         FAIR      44  37  78 SE9G20    30.03F
$$
MNZ012-019>021-037-221400-
   Northeast Minnesota

CITY           SKY/WX    TMP DP  RH WIND       PRES   REMARKS
DULUTH         CLEAR     39  33  79 SE10      30.19S
ELY            CLEAR     37  34  87 S5        30.18S
HIBBING        CLEAR     37  33  85 SE8       30.15F
EVELETH        CLEAR     36  36 100 SE5       30.18S
DULUTH HARBOR  CLEAR     41  36  81 S5        30.23S
TWO HARBORS    CLEAR     39  27  60 CALM      30.21S
SILVER BAY     CLEAR     30  30 100 CALM      30.23R
GRAND MARAIS     N/A     46  42  86 S9        30.27S
G MARAIS ARPRT CLOUDY    37  36  93 SE8       30.25R FOG
$$
MNZ029>031-032-039>041-046>048-054>057-064-221400-
   West Central Minnesota

CITY           SKY/WX    TMP DP  RH WIND       PRES   REMARKS
FERGUS FALLS   CLEAR     52  37  58 SE24G30   29.94F
WHEATON        CLEAR     48  39  71 SE22      29.92F
MORRIS         CLEAR     48  39  71 SE22G28   29.96S
ALEXANDRIA     PTCLDY    46  39  76 SE18      30.03S
ELBOW LAKE     FAIR      48  40  72 SE21G32   29.95S
WADENA         PTCLDY    45  37  76 SE13      30.01S
GLENWOOD       PTCLDY    45  41  87 SE18G25   30.03R
APPLETON       CLEAR     50  39  66 SE16G23   29.96S
BENSON         PTCLDY    46  39  76 S17G24    30.01S
ORTONVILLE     PTCLDY    48  41  76 SE16G22   29.93F
MADISON        CLEAR     54  43  66 SE14      29.96S
WILLMAR        FAIR      48  39  71 SE20G25   30.06S
$$
MNZ033>034-036-042>043-049>051-058-059-221400-
   Central Minnesota

CITY           SKY/WX    TMP DP  RH WIND       PRES   REMARKS
ST CLOUD       CLEAR     43  37  79 SE14      30.13S
SAUK CENTRE    PTSUNNY   44  37  77 SE18G24   30.06F
PAYNESVILLE    CLOUDY    43  37  77 E18G26    30.09S
AITKIN         CLEAR     45  37  76 S13G22    30.10F
PINE RIVER     CLEAR     43  37  81 SE14G20   30.11S
BRAINERD       CLEAR     42  37  82 S9        30.11R
STAPLES        CLEAR     43  37  81 SE8G18    30.05S
LONG PRAIRIE   CLOUDY    43  36  75 SE15G23   30.06F
LITTLE FALLS   CLEAR     41  36  81 SE10      30.11R
LITCHFIELD     CLOUDY    46  39  76 SE10G22   30.11R
BUFFALO        CLEAR     42  36  80 SE13      30.15F
MAPLE LAKE     CLEAR     43  39  86 SE10G18   30.14F
$$
MNZ037-044-045-052-053-221400-
   East Central Minnesota

CITY           SKY/WX    TMP DP  RH WIND       PRES   REMARKS
PRINCETON      CLEAR     43  37  81 SE9       30.16S
MORA           CLEAR     37  34  87 SE7       30.19F
CAMBRIDGE      CLEAR     43  34  70 SE9       30.16F
RUSH CITY      PTCLDY    39  36  87 SE9       30.20F
MOOSE LAKE     CLEAR     39  34  81 S6        30.17S
HINCKLEY       FAIR      37  36  93 SE3       30.20S
CLOQUET        CLEAR     37  34  87 SE6       30.18F
MCGREGOR       CLEAR     39  36  87 SE13      30.15S
$$
MNZ071>073-080-081-089-090-097-098-221400-
   Southwest Minnesota

CITY           SKY/WX    TMP DP  RH WIND       PRES   REMARKS
MONTEVIDEO     CLEAR     48  39  71 S15G24    30.00S
GRANITE FALLS  CLEAR     47  39  73 SE17G23   30.03S
CANBY          CLEAR     54  43  65 S14G20    29.97F
MARSHALL       PTCLDY    52  37  58 S21G30    29.99S
REDWOOD FALLS  PTCLDY    47  39  74 SE21      30.06F
OLIVIA         PTCLDY    45  37  76 SE16G23   30.06F
PIPESTONE      PTCLDY    52  43  71 S20G28    30.00S
WINDOM         PTCLDY    46  39  76 SE15      30.08F
WORTHINGTON    CLEAR     48  39  71 S15G23    30.07S
JACKSON        CLEAR     46  37  71 SE14G22   30.10F
TRACY          PTCLDY    50  41  71 S21G31    30.01F
SLAYTON        CLEAR     48  41  76 SE17      30.04F
$$
MNZ065>067-074>077-082>085-091>093-221400-
   South Central Minnesota

CITY           SKY/WX    TMP DP  RH WIND       PRES   REMARKS
MANKATO        CLOUDY    43  34  70 SE18G24   30.15F
NEW ULM        PTCLDY    45  39  81 S18G24    30.11F
ST JAMES       MOCLDY    46  37  71 SE16      30.13S
FAIRMONT       CLOUDY    45  36  70 SE21G26   30.13F
GLENCOE        MOCLDY    44  39  83 SE12      30.13F
FARIBAULT      CLEAR     41  37  87 SE12      30.19F
OWATONNA       CLEAR     41  36  81 SE20G26   30.19F
WASECA         CLEAR     37  32  81 SE12      30.20F
ALBERT LEA     PTCLDY    39  37  93 S16G23    30.20F
$$
MNZ078>079-086>088-094>096-221400-
   Southeast Minnesota

CITY           SKY/WX    TMP DP  RH WIND       PRES   REMARKS
ROCHESTER      CLEAR     38  35  89 S13       30.25S
RED WING       CLEAR     43  36  75 SE12      30.24S
STANTON        CLEAR     41  36  81 S10G17    30.20S
DODGE CENTER   PTCLDY    39  37  93 S15       30.23S
WINONA         CLEAR     37  36  93 SE3       30.30S
AUSTIN         CLEAR     37  36  93 S8        30.24R
PRESTON        CLEAR     35  33  93 S10       30.27S WCI  27
$$
ABBREVIATIONS USED IN REMARKS
   TC - TEMPERATURES IN CELSIUS
  WCI - WIND CHILL INDEX
   HX - HEAT INDEX
  VSB - VISIBILITY
$$



USA.gov is the U.S. government's official web portal to all federal, state and local government web resources and services.